Date,TemperatureHighF,TemperatureAvgF,TemperatureLowF,DewpointHighF,DewpointAvgF,DewpointLowF,HumidityHigh,HumidityAvg,HumidityLow,PressureMaxIn,PressureMinIn,WindSpeedMaxMPH,WindSpeedAvgMPH,GustSpeedMaxMPH,PrecipitationSumIn
2013-3-1,65.0,61.0,56.3,57.5,50.8,46.4,81,69,54,30.03,29.94,6,1,13,0.00
2013-3-2,61.4,56.4,52.1,46.9,42.6,38.9,72,60,48,30.07,30.01,15,4,21,0.00
2013-3-3,60.1,52.0,44.1,46.9,43.5,37.3,90,74,49,30.19,30.00,14,4,27,0.00
2013-3-4,73.0,54.4,39.8,47.2,38.3,33.6,93,60,24,30.26,30.13,7,1,11,0.00
2013-3-5,80.2,61.2,43.7,57.1,48.6,36.9,91,67,36,30.20,30.10,8,1,13,0.00
2013-3-6,73.7,62.3,51.6,62.8,50.0,35.4,94,68,27,30.16,30.01,15,5,23,0.00
2013-3-7,70.5,55.3,43.5,46.5,40.0,34.4,82,60,30,30.24,30.12,9,4,12,0.00
2013-3-8,79.1,61.1,45.8,50.1,44.8,37.3,91,60,24,30.24,30.12,8,2,10,0.00
2013-3-9,78.6,64.3,50.2,54.5,48.7,40.5,91,62,27,30.23,30.13,5,0,9,0.00
2013-3-10,79.3,66.1,54.2,57.8,53.9,51.9,94,68,41,30.18,30.06,12,3,16,0.00
2013-3-11,81.2,69.0,57.7,62.6,59.0,55.7,95,73,47,30.13,29.94,4,1,11,0.00
2013-3-12,78.2,68.6,61.2,68.8,63.4,57.3,96,84,60,30.04,29.92,10,3,18,0.00
2013-3-13,78.5,63.5,52.7,57.4,46.1,35.9,92,60,23,30.19,30.03,9,5,14,0.00
2013-3-14,75.5,60.1,49.8,46.6,37.4,22.5,82,50,15,30.26,30.14,10,4,15,0.00
2013-3-15,76.0,60.1,45.7,45.8,40.1,28.7,85,54,20,30.31,30.17,6,2,11,0.00
2013-3-16,81.3,64.0,49.0,55.4,48.3,43.3,95,62,27,30.22,30.09,10,1,16,0.00
2013-3-17,82.0,66.7,49.8,60.0,55.4,47.6,94,70,43,30.16,30.02,8,1,9,0.00
2013-3-18,82.6,69.0,61.5,69.8,64.1,57.8,96,85,60,30.08,29.98,10,1,12,0.00
2013-3-19,84.1,71.3,65.7,67.9,65.9,64.4,97,85,55,30.05,29.86,8,1,12,0.00
2013-3-20,83.2,68.3,60.7,66.3,61.6,54.6,98,82,41,30.03,29.85,16,3,21,0.00
2013-3-21,76.9,65.7,56.1,62.6,52.4,39.3,97,67,27,29.99,29.88,9,4,13,0.00
2013-3-22,82.7,67.9,52.2,69.9,58.9,45.2,94,74,60,30.01,29.91,5,1,9,0.00
2013-3-23,87.8,77.2,68.9,73.1,68.4,63.9,98,77,47,30.00,29.83,8,2,13,0.00
2013-3-24,85.2,76.4,68.8,73.4,70.8,65.9,97,84,64,29.89,29.72,14,4,27,0.00
2013-3-25,78.1,70.4,57.4,73.3,54.1,30.3,95,62,22,30.06,29.77,14,7,22,0.00
2013-3-26,65.8,56.8,48.8,46.8,39.4,33.1,79,54,33,30.26,30.05,19,8,30,0.00
2013-3-27,68.8,54.3,41.7,44.4,35.9,29.6,81,54,25,30.32,30.20,8,4,13,0.00
2013-3-28,76.3,58.3,42.9,43.9,36.4,25.8,85,51,18,30.32,30.18,6,2,11,0.00
2013-3-29,79.3,63.1,48.6,49.8,42.7,35.4,84,53,22,30.34,30.21,7,1,8,0.00
2013-3-30,82.4,66.1,52.4,56.2,51.9,48.4,94,65,33,30.29,30.14,7,1,13,0.00
2013-3-31,85.7,70.0,54.9,62.3,58.3,52.6,92,69,40,30.22,30.04,4,1,9,0.00